Weather in Veliko-Tyrnovo

Bulgaria     43°04′37″N   25°36′58″E
temp.,
°C
wind,
m/s
gust,
m/s
humid.,
%
clouds,
%
prec.,
mm/h
press.,
hPa
HPBL,
m
8 march, mon
mon823:00+1s22720 0.0 102247
02:000s22740 0.0 102037
05:000s22720 0.0 101928
08:00+3ssw11600 0.0 101866
11:00+9nw24426 0.0 1017860
14:00+11nw47363 0.0 10151797
17:00+10nw464111 0.0 10141231
20:00+6wsw23588 0.0 101636
9 march, tue
tue923:00+4wsw37560 0.0 1017158
02:00+3w38580 0.0 1018220
05:00+2w236316 0.0 101951
08:00+3nw016323 0.0 102065
11:00+7nw234514 0.0 1020857
14:00+9n324145 0.0 10191189
17:00+8ne334696 0.0 1019735
20:00+6ese115698 0.0 102026
10 march, wed
wed1023:00+5sse257999 0.0 1020399
02:00+4ese258199 0.1 1019476
05:00+4se398098 0.0 1018813
08:00+5sse387799 0.0 1018878
11:00+6se4766100 0.0 10161076
14:00+6se2475100 0.3 1016690
17:00+4ese2294100 1.1 1016225
20:00+4ene1196100 2.6 1018162
11 march, thu
thu1123:00+3nne1497100 2.6 1019327
02:00+1n2397100 4.8 1020210
05:00+1nnw3497100 1.8 1020242
08:00+1nne3598100 4.2 1022271
11:00+1n2396100 1.0 1024276
14:00+1nnw3497100 1.6 1024244
17:00+1n2397100 1.2 1024245
20:000wsw019598 1.3 1026151
12 march, fri
fri1223:00−1ssw119237 0.0 102749
02:00−2sse128919 0.0 102726
05:00−1s228911 0.0 102635
08:00+1sse258214 0.0 1026298
11:00+5s357027 0.0 1025527
14:00+7s346661 0.0 1023644
17:00+6sse2474100 0.0 1022395
20:00+3s2282100 0.0 102239